• Processing (Info)

  • MPEC 2019-T57 : 2019 SM10

    The following Minor Planet Electronic Circular may be linked-to from your own Web pages, but must not otherwise be redistributed electronically.

    A form allowing access to any MPEC is at the bottom of this page.


    Read MPEC 2019-T56 Read MPEC 2019-T58


    M.P.E.C. 2019-T57                               Issued 2019 October 3, 13:16 UT
    
         The Minor Planet Electronic Circulars contain information on unusual
             minor planets and routine data on comets.  They are published
        on behalf of Division F of the International Astronomical Union by the
              Minor Planet Center, Smithsonian Astrophysical Observatory,
                              Cambridge, MA 02138, U.S.A.
    
                 Prepared using the Tamkin Foundation Computer Network
    
                                  MPC@CFA.HARVARD.EDU
                URL https://www.minorplanetcenter.net/    ISSN 1523-6714
    
                                    2019 SM10                                
    
    
    Observations:
         K19S10M  C2019 08 28.31945220 59 43.439+13 25 51.68               VET057F51
         K19S10M  C2019 08 28.33044420 59 46.990+13 25 47.79         21.4 GVET057F51
         K19S10M* C2019 09 29.35979 23 53 55.087+03 15 07.41         21.9 wUET057F51
         K19S10M  C2019 09 29.38508 23 53 59.928+03 14 40.01         21.8 wUET057F51
         K19S10M  C2019 09 29.39767 23 54 02.317+03 14 26.43         22.4 wUET057F51
         K19S10M  C2019 09 30.24046 23 56 57.95 +02 59 12.7          21.3 GVET057V06
         K19S10M  C2019 09 30.24363 23 56 58.58 +02 59 09.6          21.3 GVET057V06
         K19S10M KC2019 09 30.24416523 56 57.50 +02 59 03.8          22.5 VuET057H21
         K19S10M  C2019 09 30.24679 23 56 59.15 +02 59 06.2          21.8 GVET057V06
         K19S10M  C2019 09 30.24996 23 56 59.74 +02 59 03.2          22.3 GVET057V06
         K19S10M KC2019 09 30.25024923 56 58.67 +02 58 58.0          22.2 VuET057H21
         K19S10M KC2019 09 30.25977923 57 00.46 +02 58 47.6          22.5 VuET057H21
         K19S10M KC2019 10 03.18350400 06 27.09 +02 10 32.6          22.5 VuET057H21
         K19S10M KC2019 10 03.18958900 06 28.10 +02 10 25.6          22.7 VuET057H21
         K19S10M KC2019 10 03.19486000 06 29.00 +02 10 20.2          22.2 VuET057H21
    
    Observer details:
    F51 Pan-STARRS 1, Haleakala.  Observers J. Bulger, K. Chambers, T. Lowe, E. 
       Magnier, A. Schultz, M. Willman.  Measurers S. Chastel, M. Huber, Y. 
       Ramanjooloo, R. Wainscoat, R. Weryk, K. Chambers, T. de Boer, L. Denneau, J. 
       Fairlamb, H. Flewelling, C.-C. Lin, E. Magnier.  1.8-m Ritchey-Chretien + 
       CCD.
    H21 Astronomical Research Observatory, Westfield.  Observer R. Holmes.  
        Measurers S. Foglia, L. Buzzi, T. Linder, R. Holmes.  1.3-m f/4.0 
       astrograph + CCD.
    V06 Catalina Sky Survey-Kuiper.  Observer H. Groeller.  Measurers B. M. 
       Africano, E. J. Christensen, G. A. Farneth, D. C. Fuls, A. R. Gibbs, A. D. 
       Grauer, H. Groeller, R. A. Kowalski, S. M. Larson, G. J. Leonard, T. A. 
       Pruyne, D. Rankin, R. L. Seaman, F. C. Shelly.  1.55-m reflector + CCD.
    
    Orbital elements:
    2019 SM10                                                Earth MOID = 0.1166 AU
    Epoch 2019 Apr. 27.0 TT = JDT 2458600.5                 Veres
    M 320.24560              (2000.0)            P               Q
    n   0.31960574     Peri.  143.49984     +0.90041229     +0.43473955
    a   2.1186522      Node   190.76698     -0.41675046     +0.85135399
    e   0.4739737      Incl.    4.94424     -0.12480692     +0.29359479
    P   3.08           H   25.1           G   0.15           U   7
    Residuals in seconds of arc
    190828 F51  0.1+  0.0     190930 V06  0.2-  0.4-    190930 H21  0.1-  0.5+
    190828 F51  0.1-  0.0     190930 V06  0.4+  0.2-    190930 H21  0.1-  0.2+
    190929 F51  0.0   0.1-    190930 H21  0.5-  0.1-    191003 H21  0.0   1.1+
    190929 F51  0.1+  0.0     190930 V06  0.1+  0.3-    191003 H21  0.1-  0.3-
    190929 F51  0.0   0.1+    190930 V06  0.1+  0.1+    191003 H21  0.2+  0.8-
    
    Ephemeris:
    2019 SM10                a,e,i = 2.12, 0.47, 5                   q = 1.1145
    Date    TT    R. A. (2000) Decl.     Delta      r    Elong.  Phase     V
    2019 09 03    21 34 28.2 +12 27 22   0.1182  1.1156   153.0    24.2    21.8
    ...
    2019 09 18    23 04 26.6 +07 17 43   0.1337  1.1358   167.0    11.4    21.7
    ...
    2019 09 26    23 41 16.7 +04 20 13   0.1544  1.1561   172.4     6.6    21.9
    ...
    2019 10 02    00 02 45.1 +02 29 50   0.1752  1.1753   173.1     5.9    22.1
    2019 10 03    00 05 52.7 +02 13 53   0.1791  1.1788   172.9     6.1    22.2
    2019 10 04    00 08 53.4 +01 58 39   0.1831  1.1824   172.6     6.3    22.3
    ...
    2019 10 10    00 24 45.7 +00 42 28   0.2096  1.2056   169.7     8.5    22.7
    ...
    2019 10 18    00 41 15.6 -00 21 16   0.2512  1.2406   164.7    12.3    23.3
    ...
    2019 11 02    01 03 45.2 -00 47 06   0.3494  1.3164   154.5    19.0    24.4
    
    A. U. Tomatic                (C) Copyright 2019 MPC           M.P.E.C. 2019-T57
    


    Read MPEC 2019-T56 Read MPEC 2019-T58


    MPEC number:

    Enter an MPEC number in one of the following forms:

    • 1997-B01 (the full form)
    • J97B01 (the packed version of the full form)
    • B01 (the abbreviated form)